Terug naar catalogus

SL-12 R/B(2)

ActiefUNKNOWN
NORAD 27473·ROCKET BODY·🇷🇺 Russia

Gelanceerd Jul 25, 2002 vanaf Baikonur Cosmodrome

Loading…

Volgende Passages (komende 24 uur)

TLE

VersSource: Space-Track

Epoch: Sep 14, 2026, 10:44 UTC

1 27473U 02037D   26257.44750926 -.00000065  00000-0 -30581-4 0  9998
2 27473  63.4164  57.6442 0635264 348.4943  36.4623 12.01428240 59224

Volg SL-12 R/B(2) in realtime met AllMySat

Download on the App Store